Вернуться в каталог

STARLINK-11199

АктивенСвязьVLEO
NORAD 60404·PAYLOAD·🇺🇸 United States

Запущен Aug 10, 2024 с Cape Canaveral Space Force Station

Loading…

Ближайшие Пролёты (ближайшие 24 часа)

TLE

СвежийSource: CelesTrak SupGP

Эпоха: Sep 14, 2026, 21:25 UTC

1 60404C 24141G   26257.89284722  .00041558  00000+0  34223-3 0  2576
2 60404  53.1577 233.8516 0001242  99.0298 323.1333 15.69695537    13

Отслеживайте STARLINK-11199 в реальном времени с AllMySat

Download on the App Store